Regional Weather Roundup
Issued by NWS

Home | Current Version | Previous Version | Graphics & Text | Print | Product List | Glossary On
Versions: 1 2 3 4 5 6 7 8 9 10 11 12 13 14 15 16 17 18 19 20 21 22 23 24 25 26 27
000
ASUS45 KPSR 210710
RWRAZ

ARIZONA HOURLY REGIONAL WEATHER ROUNDUP
NATIONAL WEATHER SERVICE PHOENIX AZ
1200 AM MST THU SEP 21 2017

NOTE: FAIR INDICATES FEW OR NO CLOUDS BELOW 12,000 FEET WITH NO
SIGNIFICANT WEATHER AND/OR OBSTRUCTIONS TO VISIBILITY.

AZZ001>003-036-210800-
NORTHWEST ARIZONA

CITY           SKY/WX    TMP DP  RH WIND       PRES   REMARKS
BULLHEAD CITY  CLEAR     86  37  17 S10G20    29.65S
KINGMAN        CLEAR     66  39  37 N5        29.82F
$$

AZZ004>008-015-016-018-210800-
NORTH CENTRAL ARIZONA

CITY           SKY/WX    TMP DP  RH WIND       PRES   REMARKS
GRAND CANYON   CLEAR     56  38  50 S6        30.02F
WILLIAMS       CLEAR     59  39  47 S15G22    30.03F
PRESCOTT       CLEAR     62  43  49 SW10      29.97S
FLAGSTAFF      CLEAR     55  37  50 SW9       30.06F
PAYSON           N/A     63  30  29 SE5       30.02S
PAGE           CLEAR     73  38  27 S7        29.82S
$$

AZZ009>014-017-210800-
NORTHEAST ARIZONA

CITY           SKY/WX    TMP DP  RH WIND       PRES   REMARKS
WINSLOW        CLEAR     63  33  32 S8        29.96S
SAINT JOHNS    CLEAR     67  36  31 SW7       30.04F
WINDOW ROCK    CLEAR     55  29  36 S8        30.09S
SHOW LOW       CLEAR     59  30  33 S12       30.10F
$$

AZZ540-542>544-546-548-210800-
GREATER PHOENIX AREA

CITY           SKY/WX    TMP DP  RH WIND       PRES   REMARKS
PHOENIX        CLEAR     81  34  18 SE8       29.75R
BUCKEYE        CLEAR     75  39  27 SW8       29.76S
LUKE AFB       CLEAR     79  39  23 SW8       29.76S
SCOTTSDALE     CLEAR     77  41  27 E5        29.80R
MESA-GATEWAY   CLEAR     73  32  21 SE7       29.80R
$$

AZZ539-553-210800-
SOUTHWEST MARICOPA COUNTY AND PINAL COUNTY

CITY           SKY/WX    TMP DP  RH WIND       PRES   REMARKS
CASA GRANDE    NOT AVBL
GILA BEND      FAIR      81  34  18 S10       29.73F
$$

AZZ503-504-507>509-210800-
SOUTHEAST ARIZONA

CITY           SKY/WX    TMP DP  RH WIND       PRES   REMARKS
TUCSON         CLEAR     80  42  25 CALM      29.91S
DAVIS-MONTHAN  CLEAR     76  43  30 SE5       29.90S
NOGALES        CLEAR     71  55  56 S6        30.01S
SIERRA VISTA   CLEAR     73  56  53 S9        30.05F
DOUGLAS        CLEAR     74  58  57 SW13      30.01S
SAFFORD        CLEAR     75  29  18 N8        29.89S
$$

AZZ532-210800-
SOUTHWEST ARIZONA

CITY           SKY/WX    TMP DP  RH WIND       PRES   REMARKS
YUMA           CLEAR     80  59  48 S5        29.70F
$$

CAZ041-043-047-048-061-525>527-560>570-210800-
SOUTHERN CALIFORNIA

CITY           SKY/WX    TMP DP  RH WIND       PRES   REMARKS
DOWNTOWN L.A.  CLOUDY    69  60  73 CALM      29.85S
L.A. AIRPORT   MOCLDY    67  62  84 SW7       29.86S
SAN DIEGO      CLOUDY    68  58  70 S8        29.89S
BURBANK        CLOUDY    68  56  65 SW5       29.85F
ONTARIO        CLOUDY    65  59  81 SW9       29.87S
RIVERSIDE      CLOUDY    65  61  87 VRB5      29.87F
PALM SPRINGS   CLEAR     77  56  48 NW14      29.71S
EL CENTRO NAS  CLEAR     80  34  19 W22       29.70S
IMPERIAL       CLEAR     78  41  26 W17       29.67S
BLYTHE         CLEAR     79  51  37 S15       29.68F
NEEDLES        CLEAR     86  39  19 SW12      29.66S
$$

NVZ020-UTZ003-210800-
SOUTHERN NEVADA-UTAH

CITY           SKY/WX    TMP DP  RH WIND       PRES   REMARKS
LAS VEGAS      CLEAR     79  41  25 SW9G20    29.65S
SALT LAKE CITY PTCLDY    57  43  59 N12       29.70R
$$

NMZ009-TXZ055-210800-
NEW MEXICO-WEST TEXAS

CITY           SKY/WX    TMP DP  RH WIND       PRES   REMARKS
ALBUQUERQUE    CLEAR     65  32  29 SE9       30.03R
EL PASO        PTCLDY    78  47  33 SW7       29.95F
$$


........................KEY........................
SKY/WX - SKY CONDITION/WEATHER
TMP    - TEMPERATURE IN FAHRENHEIT
DP     - DEW POINT IN FAHRENHEIT
RH     - RELATIVE HUMIDITY IN PERCENT
WIND   - DIRECTION AND SPEED IN MILES PER HOUR (MPH)
VRB    - VARIABLE WIND DIRECTION
PRES   - MEAN SEA LEVEL PRESSURE IN INCHES OF MERCURY
         F - FALLING PRESSURE   R - RISING PRESSURE
         S - STEADY PRESSURE
VSB    - VISIBILITY IN MILES
HX     - HEAT INDEX IN FAHRENHEIT
WCI    - WIND CHILL INDEX IN FAHRENHEIT
TC     - TEMPERATURE IN CELSIUS WHICH IS ALSO KNOWN AS
         TEMPERATURE IN CENTIGRADE
AFB    - AIR FORCE BASE
         LUKE AFB IS LUKE AIR FORCE BASE
         DAVIS-MONTHAN IS DAVIS-MONTHAN AIR FORCE BASE
NAS    - NAVAL AIR STATION
         EL CENTRO NAS IS EL CENTRO NAVAL AIR STATION
N/A    - NOT AVAILABLE





USA.gov is the U.S. government's official web portal to all federal, state and local government web resources and services.